Regional Weather Roundup
Issued by NWS Wakefield, VA

Home | Current Version | Previous Version | Text Only | Print | Product List | Glossary On
Versions: 1 2 3 4 5 6 7 8 9 10 11 12 13 14 15 16 17 18 19 20 21 22 23 24 25 26 27 28 29 30 31 32 33 34 35 36 37 38 39 40 41 42 43 44 45 46 47 48 49 50
000
ASUS41 KAKQ 250014
RWRAKQ

REGIONAL WEATHER ROUNDUP
NATIONAL WEATHER SERVICE WAKEFIELD VA
800 PM EDT WED AUG 24 2016

Note: "fair" indicates few or no clouds below 12,000 feet with no
significant weather and/or obstructions to visibility. * = Denotes
station may not report precipitation (e.g., rain,snow,etc.),
thunder or fog.

VAZ042-051-052>054-056-250100-
NORTHERN VIRGINIA

CITY           SKY/WX    TMP DP  RH WIND       PRES   REMARKS
WASH NATIONAL  MOCLDY    81  66  60 S12       30.18R
DULLES         MOCLDY    79  64  60 S6        30.18R
FORT BELVOIR   CLEAR     77  65  66 SE6       30.17S
QUANTICO       CLEAR     80  68  66 SE14      30.18R
FREDERICKSBRG*   N/A     76  69  79 SE5       30.17S
STAFFORD*      CLEAR     76  66  72 SE5       30.22S
WARRENTON      CLEAR     77  63  61 S3        30.18R
CULPEPER*      CLEAR     76  69  79 CALM      30.19R
MANASSAS*      CLEAR     77  68  73 S6        30.17S
LEESBURG*      CLEAR     81  70  69 S12G18    30.18S
WINCHESTER     CLEAR     79  66  65 S6        30.17R
FRONT ROYAL*   FAIR      77  68  73 CALM      30.16R
LURAY*         FAIR      79  68  69 S5        30.18S
$$

VAZ048-049-060>072-079>083-250100-
CENTRAL AND SOUTH CENTRAL VIRGINIA

CITY           SKY/WX    TMP DP  RH WIND       PRES   REMARKS
RICHMOND       PTCLDY    77  62  59 SE8       30.19R
CHESTERFIELD*  FAIR      79  55  44 S3        30.20R
PETERSBURG*    PTCLDY    77  65  67 CALM      30.20R
HANOVER        CLEAR     73  66  78 E3        30.21R
TAPPAHANNOCK*  CLEAR     75  61  61 CALM      30.20S
QUINTON*       FAIR      78  63  59 MISG      30.19R
CHARLOTTSVILLE CLEAR     79  67  66 S7        30.19R
GORDONSVILLE*  FAIR      77  70  78 CALM      30.18R
ORANGE*          N/A     77  68  73 CALM      30.21R
LOUISA*        CLEAR     75  72  88 CALM      30.19R
BUMPASS*       FAIR      73  69  88 CALM      30.19R
FARMVILLE*     CLEAR     75  69  79 CALM      30.18S
CREWE*         FAIR      74  69  83 CALM      30.20S
FORT PICKETT*  NOT AVBL
CHASE CITY*    FAIR      77  64  64 CALM      30.21R
CLARKSVILLE*   FAIR      77  66  69 CALM      30.20S
SOUTH HILL*    CLEAR     73  67  80 CALM      30.26S
LAWRENCEVILLE* FAIR      74  66  75 CALM      30.20S
EMPORIA*       PTCLDY    72  64  78 CALM      30.21S
$$

VAZ088>098-250100-
SOUTHEAST VIRGINIA

CITY           SKY/WX    TMP DP  RH WIND       PRES   REMARKS
NORFOLK        CLEAR     75  65  70 E5        30.21S
VIRGINIA BEACH PTCLDY    79  64  60 E6        30.20S
NORFOLK NAVAL  PTCLDY    75  64  68 E5        30.22R
WEST POINT*    CLEAR     73  61  64 SE5       30.22R
SALUDA*        FAIR      74  64  71 S6        30.21R
NEWPORT NEWS   PTCLDY    72  62  71 E6        30.21R
LANGLEY AFB    CLEAR     76  66  71 SE6       30.21R
FORT EUSTIS    CLEAR     77  60  55 SE3       30.18R
WILLIAMSBURG*  CLEAR     75  64  69 E5        30.21R
HR EXEC AP*    FAIR      75  63  64 SE6       30.23R
FRANKLIN*      PTCLDY    71  62  74 CALM      30.20S
US460-WAKEFLD  CLEAR     72  62  71 CALM      30.20R
$$

VAZ020-022-025-037-045-250100-
WEST CENTRAL AND SOUTHWEST VIRGINIA

CITY           SKY/WX    TMP DP  RH WIND       PRES   REMARKS
STAUNTON*      CLOUDY    76  67  72 S6        30.22S
WAYNESBORO*    FAIR      76  66  71 S6        30.22S
HOT SPRINGS VA CLEAR     68  64  86 SW6       30.33R
LYNCHBURG      PTCLDY    75  67  76 S5        30.22R
DANVILLE       CLEAR     76  68  76 CALM      30.20R
SOUTH BOSTON*  FAIR      78  66  67 SE3       30.20R
MARTINSVILLE   CLOUDY    75  71  88 CALM      30.24R
ROANOKE        MOCLDY    77  68  73 SE7       30.23R
BLACKSBURG     CLEAR     73  69  88 CALM      30.29S
DUBLIN*        PTCLDY    76  68  75 CALM      30.27S
MARION*        CLEAR     74  68  82 CALM      30.31R
HILLSVILLE*    CLEAR     70  68  94 S3        30.29S
RICHLANDS*     FAIR      74  68  82 S3        30.29R
WISE*          PTCLDY    73  61  64 S5        30.29S
ABINGDON*      PTCLDY    78  69  72 CALM      30.26R
$$

MDZ021>025-VAZ099-100-250100-
SOUTHERN MARYLAND AND THE DELMARVA PENINSULA

CITY           SKY/WX    TMP DP  RH WIND       PRES   REMARKS
PATUXENT RIVER MOCLDY    76  57  51 S7        30.19S
BAY BRIDGE APT CLEAR     79  63  57 S7        30.18S
LEONARDTOWN    CLEAR     73  59  60 SE3       30.21S
DOVER          CLEAR     74  65  74 SE9       30.18S
GEORGETOWN     CLEAR     71  63  75 S6        30.22R
EASTON         CLEAR     79  66  65 S7        30.23S
CAMBRIDGE      CLEAR     70  63  78 CALM      30.20S
SALISBURY      CLEAR     72  63  73 S5        30.21S
OCEAN CITY     CLEAR     75  63  66 S5        30.22S
WALLOPS ISLAND CLEAR     73  58  59 S6        30.22F
ACCOMACK*      CLEAR     71  61  72 SE5       30.22S
$$

NCZ012>017-030>032-250100-
NORTH CENTRAL AND EASTERN NORTH CAROLINA

CITY           SKY/WX    TMP DP  RH WIND       PRES   REMARKS
ROANOKE RAPIDS FAIR      72  66  83 CALM      30.20S
RALEIGH        MOCLDY    80  64  58 S5        30.21R
ELIZABETH CITY CLEAR     76  67  73 E7        30.21S
AHOSKIE*       PTCLDY    72  68  87 CALM      30.21R
EDENTON*       CLEAR     76  68  74 E3        30.21S
CURRITUCK*       N/A     76  67  74 CALM      30.22S
KILL DEVIL HLS MOCLDY    77  73  87 CALM      30.20S
MANTEO         PTCLDY    77  71  82 E5        30.21S
CAPE HATTERAS  MOCLDY    77  68  73 E5        30.20R
TARBORO*       FAIR      74  72  92 CALM      30.21S
GOLDSBORO      CLOUDY    79  64  61 E2        30.18F
WASHINGTON     PTCLDY    74  65  75 CALM      30.20S
GREENVILLE     MOCLDY    79  64  61 CALM      30.21S
NEW BERN       PTCLDY    78  65  63 CALM      30.20S
WILMINGTON     PTCLDY    77  65  66 N3        30.19S
$$

VAZ048-250100-
ELSEWHERE

CITY           SKY/WX    TMP DP  RH WIND       PRES   REMARKS
HARRISBURG PA  MOCLDY    79  68  69 S10       30.15R
BALTIMORE      CLOUDY    77  64  64 S7        30.17S
ANNAPOLIS      CLOUDY    79  64  60 S10       30.18S
ANDREWS AFB    CLEAR     75  65  70 SE9       30.17S
PHILADELPHIA   PTCLDY    79  64  60 S14       30.19R
HENDERSON NC   PTCLDY    74  64  71 CALM      30.22R
GREENSBORO     MOCLDY    79  65  62 S6        30.21R
ROCKY MOUNT    PTCLDY    74  67  78 CALM      30.21R
$$

VAZ100-250100-
MARINE

STATION/POSITION TIME  TEMP    WIND        PRES    WAVE   SWELL
                       AIR SEA DIR/SP/G            HT/PER HT/PER
                 (UTC) (F)     (DEG/KT/KT) (MB)    (FT/S) (FT/S)
BRANDYWINE LGT   2300   74                   N/A
CAPE MAY NJ      2300   74 74              1022.7R
LEWES DE         2300   76 76              1022.9F
OCEAN-CITY-INLET 2300   76 74              1023.7F
WACHAPREAGUE VA  2300   77 84              1023.3F
THOMAS POINT MD  0000   80 82  180/ 17/ 18 1023.0F
GOOSES REEF MD   2300   81 82  170/ 12/ 14 1022.7F   2/ 3
COVE POINT MD    2300   79                 1022.9F
SOLOMONS ISLAND  2300   80 84                N/A
BISHOPS HEAD MD  2300   80 84              1022.8F
PINEY POINT MD   2300          170/ 11/ 12   N/A
POTOMAC MD       2300   80 83  170/ 10/ 12 1021.6F   1/ 2
CAMBRIDGE MD     2300   80 84              1021.6F
LEWISETTA VA     2300   79 83              1022.1F
RAPPAHANNOCK LGT 2300                      1023.5F
STINGRAY PT      2300   80 84  100/ 10/ 12 1023.0F
YORK RVR RNG VA  2300   78                 1022.3F
YORKTOWN VA      2300   79 83              1022.2F
JAMESTOWN VA     2300   81 86  140/ 12/ 14   N/A
DOMINION TERM VA 2300   78                 1022.7F
KIPTOPEKE VA     2300      78                N/A
CHES BAY BRIDGE  2300   77 79              1022.8F
CAPE HENRY VA    2300   77                   N/A
WILLOUBY STN VA  2300   77                   N/A
CAPE HENRY BUOY  2312      79                N/A     2/11   2/11
1ST LANDING BUOY 2300   77 78  110/  8/ 10 1022.7F   1/ 4
CAPE CHARLES BUO 2326      79                N/A     2/12   2/12
OFFSHORE WE BUOY 2321      80                N/A     3/12   2/12
64NM E OF VA BCH 2350   78 81   80/  4/  8 1023.1R   3/11   2/11
DUCK PIER NC     2300   78 79              1022.3F
44100 DUCK FRF   2305      81                N/A     2/12
44056 DUCK FRF   2311      76                N/A     2/12
OREGON INLET NC  2300   79 79              1022.6F
HATTERAS NC      2300   80 80              1022.0F
DIAMOND SHLS NC  2350   81 84   80/ 12/ 14 1022.2F   3/11   2/11
CAPE LOOKOUT NC  0000   81      80/ 10/ 11 1021.8R
$$



USA.gov is the U.S. government's official web portal to all federal, state and local government web resources and services.